Location: Baia Mare
(47.6567°N, 23.5850°E)
Time: 03:13:26
(UTC+03:00)

ISS - Pass Details

Date: 28 July 2018
Orbit: 402 x 408 km, 51.6° (Epoch: 17 July)

Event Time Altitude Azimuth Distance (km) Brightness Sun altitude
Rises 01:08:01 0° 293° (WNW) 2,327 0.4 -23.1°
Reaches altitude 10° 01:10:07 10° 290° (WNW) 1,465 -0.7 -23.1°
Enters shadow 01:11:02 17° 286° (WNW) 1,097 -1.4 -23.1°
